Regional Weather Roundup
Issued by NWS Upton, NY

Current Version | Previous Version | Text Only | Print | Product List | Glossary On
Versions: 1 2 3 4 5 6 7 8 9 10 11 12 13 14 15 16 17 18 19 20 21 22 23 24 25 26 27 28 29 30 31 32 33 34 35 36 37 38 39 40 41 42 43 44 45 46 47 48 49 50
000 ASUS41 KOKX 300205 RWROKX REGIONAL WEATHER ROUNDUP NATIONAL WEATHER SERVICE NEW YORK NY 1000 PM EDT MON SEP 29 2014 NOTE: "FAIR" INDICATES FEW OR NO CLOUDS BELOW 12,000 FEET WITH NO SIGNIFICANT WEATHER AND/OR OBSTRUCTIONS TO VISIBILITY. NYZ071-072-176-178-NJZ106-104-300300- NEW YORK CITY METRO AREA CITY SKY/WX TMP DP RH WIND PRES REMARKS CENTRAL PARK CLOUDY 72 58 61 CALM 29.96R LAGUARDIA APRT CLOUDY 73 60 63 SE6 29.92S KENNEDY INTL CLOUDY 70 63 78 SW7 29.94F NEWARK/LIBERTY CLOUDY 71 60 68 SW9 29.93S BRNX BOT. GARD N/A 70 59 68 SE1 29.96R TETERBORO CLOUDY 71 60 68 CALM 29.92R $$ NYZ177-179-078>081-300300- LONG ISLAND NEW YORK CITY SKY/WX TMP DP RH WIND PRES REMARKS FARMINGDALE CLOUDY 70 65 84 CALM 29.94S ISLIP CLOUDY 68 65 90 SW3 29.92F SHIRLEY CLOUDY 67 65 93 CALM 29.95R WESTHAMPTON CLOUDY 65 63 93 CALM 29.96R FOG MONTAUK POINT N/A 68 66 93 CALM 29.97R $$ NYZ052-065-067-300300- HUDSON VALLEY CITY SKY/WX TMP DP RH WIND PRES REMARKS WHITE PLAINS CLOUDY 65 60 84 CALM 29.94R NEWBURGH PTCLDY 70 61 73 CALM 29.95R MONTGOMERY CLOUDY 63 60 90 CALM 29.94R POUGHKEEPSIE CLOUDY 66 62 87 SE3 29.92S ALBANY MOCLDY 60 57 89 CALM 29.94R $$ NJZ001-105-106-008-010-013-015-019>022-104-300300- NEW JERSEY CITY SKY/WX TMP DP RH WIND PRES REMARKS NEWARK/LIBERTY CLOUDY 71 60 68 SW9 29.93S TETERBORO CLOUDY 71 60 68 CALM 29.92R CALDWELL CLOUDY 69 59 70 CALM 29.94R MORRISTOWN CLOUDY 66 61 82 CALM 29.95 SOMERVILLE CLOUDY 64 60 87 CALM 29.93R LINDEN FAIR 74 64 69 W3 29.95S SUSSEX CLOUDY 65 60 84 CALM 29.94R ANDOVER N/A 62 60 93 CALM 29.95S TRENTON CLOUDY 67 61 81 W3 29.94S MILLVILLE CLOUDY 65 63 93 CALM 29.96S ATLANTIC CITY CLOUDY 67 65 93 SW3 29.96R WRIGHTSTOWN CLOUDY 66 65 97 SW10 29.93R TOMS RIVER CLOUDY 66 64 94 W6 29.96R BELMAR CLOUDY 66 61 82 SW5 29.95R $$ PAZ047>061-062-071-300300- EASTERN PENNSYLVANIA CITY SKY/WX TMP DP RH WIND PRES REMARKS PHILADELPHIA LGT RAIN 67 63 87 S6 29.95F ALLENTOWN CLOUDY 67 62 84 CALM 29.94S SCRANTON CLOUDY 64 55 72 E5 29.93S $$ CTZ002-004>006-009-010-012-RIZ004-006-007-MAZ004-011-015-300300- SOUTHERN NEW ENGLAND IN CT CITY SKY/WX TMP DP RH WIND PRES REMARKS BRADLEY INTL CLOUDY 70 60 70 E9 29.97R HARTFORD CLOUDY 68 64 87 SE7 29.95R DANBURY CLOUDY 64 60 87 CALM 29.96S WTRBRY/OXFORD CLOUDY 63 57 82 CALM 29.96S BRIDGEPORT CLOUDY 69 65 86 SW3 29.94R MERIDEN CLOUDY 65 62 90 CALM 29.94F NEW HAVEN CLOUDY 68 64 87 S3 29.95S CHESTER MOCLDY 64 64 100 CALM 29.96S FOG GROTON CLOUDY 66 65 96 NE5 29.95S WILLIMANTIC CLOUDY 65 59 81 NE12 29.98R IN RI CITY SKY/WX TMP DP RH WIND PRES REMARKS PROVIDENCE CLOUDY 62 59 90 N13 30.00R BLOCK ISLAND CLOUDY 66 63 88 NE5 29.97R WESTERLY CLOUDY 65 63 93 NE10 29.97S IN MA CITY SKY/WX TMP DP RH WIND PRES REMARKS BOSTON FOG 58 56 93 NE13 30.02R VSB 1 WORCESTER N/A 55 55 100 NE7 30.03R VSB 1/2 WESTFIELD CLOUDY 67 58 72 E6 29.98R PROVINCETOWN CLOUDY 63 59 88 NE6 29.98S NANTUCKET CLOUDY 64 63 94 SE3 29.96F FOG $$ ANZ330-335-338-340-345-350-353-355-300300- COASTAL MARINE OBSERVATIONS STATION/POSITION TIME SKY/WX TEMP WIND PRES VSBY WAVE AIR SEA DIR/SP/G HT/PER (UTC) (F) (DEG/KT/KT) (MB) (MI) (FT/S) NY HARB ENTRANCE 0200 70 69 250/ 8/ 10 1013.9 4S FIRE IS 0200 69 N/A 2/ 7 20S FIRE ISLAND 0200 68 68 210/ 10/ 12 1013.8 2/ 8 23SW MTP 0200 N/A 2/ 7 HUDSON CANYON 0200 70 71 220/ 8/ 8 1014.3 2/ 8 EXECUTION ROCKS 0200 70 69 210/ 4/ 6 N/A WESTERN LI SOUND 0200 70 190/ 4/ 8 N/A 0 CENTRAL LI SOUND 0100 68 69 200/ 2/ 4 N/A 0 EASTERN LI SOUND 0100 67 67 200/ 2/ 4 N/A ROBBINS REEF 0100 72 170/ 4/ 5 1012.4 $$ >>>>>>>>>>>>>>>>>>>>>>>>>>>> KEY <<<<<<<<<<<<<<<<<<<<<<<<<<< > < > SKY/WX - SKY CONDITION/PRESENT WEATHER < > TMP - TEMPERATURE IN FAHRENHEIT < > DP - DEWPOINT IN FAHRENHEIT < > RH - RELATIVE HUMIDITY IN PERCENT < > WIND - DIRECTION AND SPEED IN MPH < > PRES - MEAN SEA LEVEL PRESSURE IN INCHES OF HG < > WCI - WIND CHILL INDEX < > VSB - VISIBILITY IN MILES < > HX - HEAT INDEX < > TC - TEMPERATURE IN CELSIUS < > VRB - VARIABLE WIND DIRECTION < > < >>>>>>>>>>>>>>>>>>>>>>>>>>>> KEY <<<<<<<<<<<<<<<<<<<<<<<<<<<

USA.gov is the U.S. government's official web portal to all federal, state and local government web resources and services.